Flag for Canada Weather past 2 weeks in Cranbrook, British Columbia, Canada

Now
57 °F

Passing clouds.


Feels Like: 56 °F
Forecast: 49 / 78 °F
Wind: 7 mph from South

Location: Cranbrook

Current Time: May 24, 2015 at 1:24:56 AM

Latest Report: May 24, 2015 at 12:00 AM


Visibility: 25 mi

Pressure: 30.03 "Hg

Humidity: 31%

Dew point: 27 °F

Location of CranbrookLocation

Historic Weather in Cranbrook — Graph

°F

Cranbrook temperature yesterday

Maximum temperature yesterday: 79 °F (at 5:00 PM)
Minimum temperature yesterday: 50 °F (at 6:00 AM)
Average temperature yesterday: 65 °F

Past Weeks' High & Low Weather Summary

 TemperatureHumidityPressure
High79 °F (May 22, 4:00 PM)93% (May 11, 4:00 AM)30.31 "Hg (May 11, 4:00 AM)
Low30 °F (May 9, 6:00 AM)12% (May 21, 5:00 PM)29.67 "Hg (May 15, 8:00 PM)
Average55 °F46%30.02 "Hg
* Reported Midnight between May 8 and May 9 — Midnight between May 23 and May 24, Cranbrook, Weather by CustomWeather, © 2015

Note: Actual official high and low records may vary slightly from our data, if they occured in-between our weather recording intervals... More about our weather records

Advertising

Cranbrook weather history for previous 24 hours

 ConditionsComfort  
Time TempWeatherWind HumidityBarometerVisibility
12:00 AM
Sun, May 24
57 °FPassing clouds.7 mph31%30.03 "Hg25 mi
11:00 PM
Sat, May 23
63 °FPassing clouds.6 mph25%30.03 "Hg45 mi
10:00 PM64 °FPassing clouds.7 mph26%30.01 "Hg45 mi
9:00 PM70 °FScattered clouds.12 mph21%29.99 "Hg45 mi
8:00 PM73 °FPartly sunny.13 mph17%29.98 "Hg45 mi
7:00 PM77 °FScattered clouds.9 mph13%29.97 "Hg45 mi
6:00 PM79 °FScattered clouds.10 mph15%29.97 "Hg45 mi
5:00 PM79 °FScattered clouds.6 mph12%29.98 "Hg45 mi
4:00 PM77 °FScattered clouds.2 mph14%30.00 "Hg25 mi
3:00 PM77 °FScattered clouds.5 mph15%30.01 "Hg25 mi
2:00 PM77 °FScattered clouds.9 mph14%30.02 "Hg25 mi
1:00 PM75 °FScattered clouds.6 mph19%30.03 "Hg25 mi
12:00 PM72 °FScattered clouds.2 mph23%30.04 "Hg25 mi
11:00 AM68 °FScattered clouds.No wind28%30.06 "Hg25 mi
10:00 AM64 °FScattered clouds.3 mph34%30.07 "Hg25 mi
9:00 AM59 °FScattered clouds.2 mph42%30.07 "Hg25 mi
8:00 AM55 °FScattered clouds.9 mph44%30.06 "Hg25 mi
7:00 AM52 °FPassing clouds.8 mph50%30.05 "Hg25 mi
6:00 AM50 °FPassing clouds.8 mph50%30.04 "Hg25 mi
5:00 AM52 °FClear.10 mph47%30.03 "Hg25 mi
4:00 AM52 °FClear.10 mph47%30.02 "Hg25 mi
2:00 AM54 °FPassing clouds.2 mph44%29.99 "Hg25 mi
1:00 AM57 °FPassing clouds.5 mph39%29.97 "Hg25 mi
Weather by CustomWeather, © 2015

See weather overviewHow to use our weather pages